Powrót do katalogu

STARLINK-3833

AktywnyŁącznośćVLEO
NORAD 52578·PAYLOAD·🇺🇸 United States

Wystrzelony May 13, 2022 z Vandenberg Space Force Base

Loading…

Następne Przeloty (najbliższe 24 godziny)

TLE

ŚwieżeSource: CelesTrak SupGP

Epoka: Sep 14, 2026, 20:44 UTC

1 52578C 22051AU  26257.86437500 -.00033774  00000+0 -99828-3 0  2573
2 52578  53.1603 350.3102 0001202  79.1331 322.0263 15.34394296    15

Śledź STARLINK-3833 w czasie rzeczywistym z AllMySat

Download on the App Store